Time,TemperatureF,DewpointF,PressureIn,WindDirection,WindDirectionDegrees,WindSpeedMPH,WindSpeedGustMPH,Humidity,HourlyPrecipIn,Conditions,Clouds,dailyrainin,SoftwareType,DateUTC
2013-05-09 00:00:00,69.0,61.1,30.09,West,280,2.0,2.0,76,0.00,,,0.00,Wunderground v.1.15,2013-05-09 04:00:00,
2013-05-09 00:05:00,68.8,60.9,30.10,WNW,290,3.0,3.0,76,0.00,,,0.00,Wunderground v.1.15,2013-05-09 04:05:00,
2013-05-09 00:10:00,68.7,61.2,30.09,WNW,301,1.0,1.0,77,0.00,,,0.00,Wunderground v.1.15,2013-05-09 04:10:00,
2013-05-09 00:20:00,68.4,61.3,30.10,NW,308,2.0,2.0,78,0.00,,,0.00,Wunderground v.1.15,2013-05-09 04:20:00,
2013-05-09 00:25:00,68.3,61.2,30.10,West,262,2.0,2.0,78,0.00,,,0.00,Wunderground v.1.15,2013-05-09 04:25:00,
2013-05-09 00:35:00,68.0,61.6,30.10,WNW,296,2.0,2.0,80,0.00,,,0.00,Wunderground v.1.15,2013-05-09 04:35:00,
2013-05-09 00:45:00,67.8,61.4,30.10,WNW,290,2.0,3.0,80,0.00,,,0.00,Wunderground v.1.15,2013-05-09 04:45:00,
2013-05-09 00:50:00,67.6,61.6,30.10,West,261,2.0,2.0,81,0.00,,,0.00,Wunderground v.1.15,2013-05-09 04:50:00,
2013-05-09 01:00:00,67.4,61.7,30.10,WNW,300,2.0,4.0,82,0.00,,,0.00,Wunderground v.1.15,2013-05-09 05:00:00,
2013-05-09 01:05:00,67.3,61.6,30.10,West,267,2.0,4.0,82,0.00,,,0.00,Wunderground v.1.15,2013-05-09 05:05:00,
2013-05-09 01:15:00,67.1,61.8,30.09,West,277,1.0,1.0,83,0.00,,,0.00,Wunderground v.1.15,2013-05-09 05:15:00,
2013-05-09 01:20:00,67.0,61.7,30.10,West,276,1.0,1.0,83,0.00,,,0.00,Wunderground v.1.15,2013-05-09 05:20:00,
2013-05-09 01:30:00,66.7,61.7,30.09,WNW,284,0.0,0.0,84,0.00,,,0.00,Wunderground v.1.15,2013-05-09 05:30:00,
2013-05-09 01:35:00,66.6,61.9,30.09,WNW,301,1.0,2.0,85,0.00,,,0.00,Wunderground v.1.15,2013-05-09 05:35:00,
2013-05-09 01:45:00,66.4,61.8,30.09,WNW,293,1.0,5.0,85,0.00,,,0.00,Wunderground v.1.15,2013-05-09 05:45:00,
2013-05-09 01:50:00,66.3,62.0,30.09,NW,306,1.0,1.0,86,0.00,,,0.00,Wunderground v.1.15,2013-05-09 05:50:00,
2013-05-09 02:00:00,66.1,61.8,30.08,WNW,282,0.0,1.0,86,0.00,,,0.00,Wunderground v.1.15,2013-05-09 06:00:00,
2013-05-09 02:05:00,65.9,61.9,30.08,WNW,283,0.0,1.0,87,0.00,,,0.00,Wunderground v.1.15,2013-05-09 06:05:00,
2013-05-09 02:15:00,65.7,61.7,30.08,West,278,0.0,0.0,87,0.00,,,0.00,Wunderground v.1.15,2013-05-09 06:15:00,
2013-05-09 02:20:00,65.6,61.6,30.08,West,278,0.0,0.0,87,0.00,,,0.00,Wunderground v.1.15,2013-05-09 06:20:00,
2013-05-09 02:30:00,65.3,61.0,30.08,West,278,0.0,0.0,86,0.00,,,0.00,Wunderground v.1.15,2013-05-09 06:30:00,
2013-05-09 02:35:00,65.2,60.9,30.08,West,278,0.0,0.0,86,0.00,,,0.00,Wunderground v.1.15,2013-05-09 06:35:00,
2013-05-09 02:45:00,64.8,60.8,30.08,West,278,0.0,0.0,87,0.00,,,0.00,Wunderground v.1.15,2013-05-09 06:45:00,
2013-05-09 02:55:00,64.4,60.8,30.08,West,278,0.0,0.0,88,0.00,,,0.00,Wunderground v.1.15,2013-05-09 06:55:00,
2013-05-09 03:05:00,64.0,60.7,30.08,West,278,0.0,0.0,89,0.00,,,0.00,Wunderground v.1.15,2013-05-09 07:05:00,
2013-05-09 03:15:00,63.8,60.5,30.08,West,278,0.0,0.0,89,0.00,,,0.00,Wunderground v.1.15,2013-05-09 07:15:00,
2013-05-09 03:20:00,63.6,60.3,30.07,West,278,0.0,0.0,89,0.00,,,0.00,Wunderground v.1.15,2013-05-09 07:20:00,
2013-05-09 03:25:00,63.5,60.2,30.08,West,278,0.0,0.0,89,0.00,,,0.00,Wunderground v.1.15,2013-05-09 07:25:00,
2013-05-09 03:35:00,63.5,60.5,30.08,West,278,0.0,0.0,90,0.00,,,0.00,Wunderground v.1.15,2013-05-09 07:35:00,
2013-05-09 03:45:00,63.4,60.4,30.07,West,278,0.0,0.0,90,0.00,,,0.00,Wunderground v.1.15,2013-05-09 07:45:00,
2013-05-09 03:55:00,63.4,60.4,30.08,West,278,0.0,0.0,90,0.00,,,0.00,Wunderground v.1.15,2013-05-09 07:55:00,
2013-05-09 04:05:00,63.3,60.6,30.08,West,278,0.0,0.0,91,0.00,,,0.00,Wunderground v.1.15,2013-05-09 08:05:00,
2013-05-09 04:10:00,63.2,60.5,30.07,West,278,0.0,0.0,91,0.00,,,0.00,Wunderground v.1.15,2013-05-09 08:10:00,
2013-05-09 04:15:00,63.2,60.5,30.07,West,278,0.0,0.0,91,0.00,,,0.00,Wunderground v.1.15,2013-05-09 08:15:00,
2013-05-09 04:25:00,63.1,60.4,30.07,West,278,0.0,0.0,91,0.00,,,0.00,Wunderground v.1.15,2013-05-09 08:25:00,
2013-05-09 04:30:00,63.1,60.7,30.07,West,278,0.0,0.0,92,0.00,,,0.00,Wunderground v.1.15,2013-05-09 08:30:00,
2013-05-09 04:40:00,63.2,60.8,30.07,West,278,0.0,0.0,92,0.00,,,0.00,Wunderground v.1.15,2013-05-09 08:40:00,
2013-05-09 04:50:00,63.2,60.8,30.07,West,278,0.0,0.0,92,0.00,,,0.00,Wunderground v.1.15,2013-05-09 08:50:00,
2013-05-09 05:00:00,63.3,60.9,30.07,WNW,296,0.0,0.0,92,0.00,,,0.00,Wunderground v.1.15,2013-05-09 09:00:00,
2013-05-09 05:10:00,63.4,61.0,30.07,WNW,296,0.0,0.0,92,0.00,,,0.00,Wunderground v.1.15,2013-05-09 09:10:00,
2013-05-09 05:20:00,63.5,61.4,30.07,WNW,293,0.0,0.0,93,0.00,,,0.00,Wunderground v.1.15,2013-05-09 09:20:00,
2013-05-09 05:30:00,63.5,61.4,30.07,WNW,294,0.0,0.0,93,0.00,,,0.00,Wunderground v.1.15,2013-05-09 09:30:00,
2013-05-09 05:35:00,63.6,61.5,30.07,WNW,292,0.0,0.0,93,0.00,,,0.00,Wunderground v.1.15,2013-05-09 09:35:00,
2013-05-09 05:40:00,63.6,61.5,30.07,WNW,293,0.0,0.0,93,0.00,,,0.00,Wunderground v.1.15,2013-05-09 09:40:00,
2013-05-09 05:50:00,63.6,61.5,30.07,WNW,290,0.0,0.0,93,0.00,,,0.00,Wunderground v.1.15,2013-05-09 09:50:00,
2013-05-09 06:00:00,63.6,61.5,30.07,WNW,290,0.0,0.0,93,0.00,,,0.00,Wunderground v.1.15,2013-05-09 10:00:00,
2013-05-09 06:05:00,63.5,61.4,30.07,WNW,290,0.0,0.0,93,0.00,,,0.00,Wunderground v.1.15,2013-05-09 10:05:00,
2013-05-09 06:15:00,63.5,61.4,30.07,WNW,290,0.0,0.0,93,0.00,,,0.00,Wunderground v.1.15,2013-05-09 10:15:00,
2013-05-09 06:25:00,63.4,61.3,30.08,WNW,290,0.0,0.0,93,0.00,,,0.00,Wunderground v.1.15,2013-05-09 10:25:00,
2013-05-09 06:35:00,63.4,61.3,30.08,WNW,297,0.0,0.0,93,0.00,,,0.00,Wunderground v.1.15,2013-05-09 10:35:00,
2013-05-09 06:45:00,63.3,61.2,30.09,WNW,295,0.0,0.0,93,0.00,,,0.00,Wunderground v.1.15,2013-05-09 10:45:00,
2013-05-09 06:55:00,63.4,61.3,30.10,WNW,292,0.0,0.0,93,0.00,,,0.00,Wunderground v.1.15,2013-05-09 10:55:00,
2013-05-09 07:05:00,63.4,61.3,30.10,WNW,292,0.0,0.0,93,0.00,,,0.00,Wunderground v.1.15,2013-05-09 11:05:00,
2013-05-09 07:15:00,63.4,61.3,30.10,NE,40,0.0,0.0,93,0.00,,,0.00,Wunderground v.1.15,2013-05-09 11:15:00,
2013-05-09 07:25:00,63.6,61.8,30.11,NNE,19,0.0,0.0,94,0.00,,,0.00,Wunderground v.1.15,2013-05-09 11:25:00,
2013-05-09 07:35:00,63.9,61.8,30.11,NW,324,0.0,0.0,93,0.00,,,0.00,Wunderground v.1.15,2013-05-09 11:35:00,
2013-05-09 07:45:00,64.3,62.2,30.11,NW,319,0.0,0.0,93,0.00,,,0.00,Wunderground v.1.15,2013-05-09 11:45:00,
2013-05-09 07:55:00,64.8,62.7,30.11,WNW,303,1.0,3.0,93,0.00,,,0.00,Wunderground v.1.15,2013-05-09 11:55:00,
2013-05-09 08:05:00,65.5,63.4,30.11,WNW,300,0.0,1.0,93,0.00,,,0.00,Wunderground v.1.15,2013-05-09 12:05:00,
2013-05-09 08:15:00,66.1,63.7,30.12,NW,309,1.0,1.0,92,0.00,,,0.00,Wunderground v.1.15,2013-05-09 12:15:00,
2013-05-09 08:20:00,66.5,64.1,30.12,WNW,291,1.0,3.0,92,0.00,,,0.00,Wunderground v.1.15,2013-05-09 12:20:00,
2013-05-09 08:30:00,67.4,64.4,30.12,NW,304,3.0,3.0,90,0.00,,,0.00,Wunderground v.1.15,2013-05-09 12:30:00,
2013-05-09 08:35:00,67.7,64.3,30.12,North,351,2.0,4.0,89,0.00,,,0.00,Wunderground v.1.15,2013-05-09 12:35:00,
2013-05-09 08:45:00,68.4,64.7,30.12,NW,319,4.0,4.0,88,0.00,,,0.00,Wunderground v.1.15,2013-05-09 12:45:00,
2013-05-09 08:50:00,68.8,64.8,30.12,NW,317,4.0,4.0,87,0.00,,,0.00,Wunderground v.1.15,2013-05-09 12:50:00,
2013-05-09 09:00:00,69.6,64.9,30.12,WNW,292,4.0,4.0,85,0.00,,,0.00,Wunderground v.1.15,2013-05-09 13:00:00,
2013-05-09 09:05:00,69.9,64.5,30.12,WNW,292,4.0,4.0,83,0.00,,,0.00,Wunderground v.1.15,2013-05-09 13:05:00,
2013-05-09 09:15:00,70.5,64.7,30.13,WNW,292,4.0,8.0,82,0.00,,,0.00,Wunderground v.1.15,2013-05-09 13:15:00,
2013-05-09 09:20:00,70.9,65.1,30.13,NNW,345,4.0,4.0,82,0.00,,,0.00,Wunderground v.1.15,2013-05-09 13:20:00,
2013-05-09 09:30:00,71.5,65.4,30.13,WNW,294,2.0,3.0,81,0.00,,,0.00,Wunderground v.1.15,2013-05-09 13:30:00,
2013-05-09 09:35:00,71.9,65.4,30.13,NNW,347,2.0,5.0,80,0.00,,,0.00,Wunderground v.1.15,2013-05-09 13:35:00,
2013-05-09 09:45:00,72.5,65.2,30.13,NW,325,2.0,3.0,78,0.00,,,0.00,Wunderground v.1.15,2013-05-09 13:45:00,
2013-05-09 09:55:00,73.2,65.6,30.13,NW,309,1.0,2.0,77,0.00,,,0.00,Wunderground v.1.15,2013-05-09 13:55:00,
2013-05-09 10:05:00,74.1,65.7,30.13,NW,306,2.0,3.0,75,0.00,,,0.00,Wunderground v.1.15,2013-05-09 14:05:00,
2013-05-09 10:15:00,74.8,66.0,30.13,WNW,282,1.0,3.0,74,0.00,,,0.00,Wunderground v.1.15,2013-05-09 14:15:00,
2013-05-09 10:25:00,75.8,65.3,30.13,NW,309,1.0,2.0,70,0.00,,,0.00,Wunderground v.1.15,2013-05-09 14:25:00,
2013-05-09 10:35:00,75.9,64.6,30.13,NW,319,3.0,5.0,68,0.00,,,0.00,Wunderground v.1.15,2013-05-09 14:35:00,
2013-05-09 10:45:00,76.6,64.8,30.13,NW,315,2.0,4.0,67,0.00,,,0.00,Wunderground v.1.15,2013-05-09 14:45:00,
2013-05-09 10:55:00,77.5,64.8,30.13,NNW,337,1.0,4.0,65,0.00,,,0.00,Wunderground v.1.15,2013-05-09 14:55:00,
2013-05-09 11:05:00,78.2,63.6,30.13,NW,317,2.0,2.0,61,0.00,,,0.00,Wunderground v.1.15,2013-05-09 15:05:00,
2013-05-09 11:15:00,78.4,62.9,30.13,NW,325,2.0,3.0,59,0.00,,,0.00,Wunderground v.1.15,2013-05-09 15:15:00,
2013-05-09 11:25:00,79.0,62.5,30.12,West,265,2.0,3.0,57,0.00,,,0.00,Wunderground v.1.15,2013-05-09 15:25:00,
2013-05-09 11:35:00,79.0,60.4,30.13,NNW,333,3.0,4.0,53,0.00,,,0.00,Wunderground v.1.15,2013-05-09 15:35:00,
2013-05-09 11:45:00,78.7,60.7,30.13,NW,309,3.0,3.0,54,0.00,,,0.00,Wunderground v.1.15,2013-05-09 15:45:00,
2013-05-09 11:55:00,79.2,61.6,30.13,NW,321,0.0,3.0,55,0.00,,,0.00,Wunderground v.1.15,2013-05-09 15:55:00,
2013-05-09 12:05:00,79.6,61.0,30.13,WNW,300,2.0,5.0,53,0.00,,,0.00,Wunderground v.1.15,2013-05-09 16:05:00,
2013-05-09 12:10:00,79.9,60.2,30.13,WNW,302,1.0,1.0,51,0.00,,,0.00,Wunderground v.1.15,2013-05-09 16:10:00,
2013-05-09 12:20:00,80.7,62.5,30.12,NW,325,1.0,3.0,54,0.00,,,0.00,Wunderground v.1.15,2013-05-09 16:20:00,
2013-05-09 12:30:00,81.7,64.5,30.12,East,86,1.0,1.0,56,0.00,,,0.00,Wunderground v.1.15,2013-05-09 16:30:00,
2013-05-09 12:40:00,82.0,64.2,30.13,SSE,150,0.0,0.0,55,0.00,,,0.00,Wunderground v.1.15,2013-05-09 16:40:00,
2013-05-09 12:50:00,82.1,63.8,30.13,SE,139,0.0,0.0,54,0.00,,,0.00,Wunderground v.1.15,2013-05-09 16:50:00,
2013-05-09 13:00:00,82.0,63.2,30.13,SE,140,0.0,0.0,53,0.00,,,0.00,Wunderground v.1.15,2013-05-09 17:00:00,
2013-05-09 13:10:00,82.2,64.9,30.13,SE,139,0.0,0.0,56,0.00,,,0.00,Wunderground v.1.15,2013-05-09 17:10:00,
2013-05-09 13:15:00,82.9,65.6,30.12,East,100,0.0,1.0,56,0.00,,,0.00,Wunderground v.1.15,2013-05-09 17:15:00,
2013-05-09 13:25:00,82.3,64.5,30.11,ESE,107,1.0,1.0,55,0.00,,,0.00,Wunderground v.1.15,2013-05-09 17:25:00,
2013-05-09 13:35:00,82.6,65.3,30.11,South,191,0.0,0.0,56,0.00,,,0.00,Wunderground v.1.15,2013-05-09 17:35:00,
2013-05-09 13:45:00,82.5,67.2,30.11,South,188,0.0,0.0,60,0.00,,,0.00,Wunderground v.1.15,2013-05-09 17:45:00,
2013-05-09 13:55:00,83.0,65.7,30.11,SSE,166,0.0,0.0,56,0.00,,,0.00,Wunderground v.1.15,2013-05-09 17:55:00,
2013-05-09 14:05:00,82.9,65.6,30.10,ESE,105,0.0,0.0,56,0.00,,,0.00,Wunderground v.1.15,2013-05-09 18:05:00,
2013-05-09 14:15:00,82.7,66.4,30.11,ESE,105,0.0,0.0,58,0.00,,,0.00,Wunderground v.1.15,2013-05-09 18:15:00,
2013-05-09 14:25:00,83.4,65.5,30.10,ESE,105,0.0,0.0,55,0.00,,,0.00,Wunderground v.1.15,2013-05-09 18:25:00,
2013-05-09 14:35:00,83.9,67.0,30.10,SSE,157,0.0,1.0,57,0.00,,,0.00,Wunderground v.1.15,2013-05-09 18:35:00,
2013-05-09 14:45:00,83.1,66.8,30.10,SSE,157,0.0,0.0,58,0.00,,,0.00,Wunderground v.1.15,2013-05-09 18:45:00,
2013-05-09 14:55:00,83.5,64.0,30.09,SSE,156,0.0,0.0,52,0.00,,,0.00,Wunderground v.1.15,2013-05-09 18:55:00,
2013-05-09 15:05:00,83.9,67.0,30.09,SSE,156,0.0,0.0,57,0.00,,,0.00,Wunderground v.1.15,2013-05-09 19:05:00,
2013-05-09 15:15:00,84.5,63.2,30.09,SE,138,0.0,0.0,49,0.00,,,0.00,Wunderground v.1.15,2013-05-09 19:15:00,
2013-05-09 15:25:00,84.9,65.3,30.08,SE,126,0.0,2.0,52,0.00,,,0.00,Wunderground v.1.15,2013-05-09 19:25:00,
2013-05-09 15:35:00,84.7,65.1,30.08,SE,126,0.0,0.0,52,0.00,,,0.00,Wunderground v.1.15,2013-05-09 19:35:00,
2013-05-09 15:45:00,84.2,66.3,30.08,SE,126,0.0,0.0,55,0.00,,,0.00,Wunderground v.1.15,2013-05-09 19:45:00,
2013-05-09 15:55:00,83.7,64.8,30.08,SE,126,0.0,0.0,53,0.00,,,0.00,Wunderground v.1.15,2013-05-09 19:55:00,
2013-05-09 16:05:00,82.9,64.0,30.08,SE,126,0.0,0.0,53,0.00,,,0.00,Wunderground v.1.15,2013-05-09 20:05:00,
2013-05-09 16:15:00,83.2,64.8,30.07,SE,126,0.0,0.0,54,0.00,,,0.00,Wunderground v.1.15,2013-05-09 20:15:00,
2013-05-09 16:20:00,83.7,66.3,30.07,SE,126,0.0,0.0,56,0.00,,,0.00,Wunderground v.1.15,2013-05-09 20:20:00,
2013-05-09 16:30:00,83.9,63.3,30.07,SE,126,0.0,0.0,50,0.00,,,0.00,Wunderground v.1.15,2013-05-09 20:30:00,
2013-05-09 16:35:00,84.2,66.8,30.07,SE,126,0.0,0.0,56,0.00,,,0.00,Wunderground v.1.15,2013-05-09 20:35:00,
2013-05-09 16:45:00,84.9,65.9,30.07,SE,126,0.0,1.0,53,0.00,,,0.00,Wunderground v.1.15,2013-05-09 20:45:00,
2013-05-09 16:50:00,85.0,65.4,30.06,SE,125,1.0,1.0,52,0.00,,,0.00,Wunderground v.1.15,2013-05-09 20:50:00,
2013-05-09 17:00:00,85.0,67.0,30.06,SE,125,0.0,0.0,55,0.00,,,0.00,Wunderground v.1.15,2013-05-09 21:00:00,
2013-05-09 17:05:00,84.5,66.6,30.06,SE,125,0.0,0.0,55,0.00,,,0.00,Wunderground v.1.15,2013-05-09 21:05:00,
2013-05-09 17:15:00,83.4,67.6,30.06,SE,125,0.0,0.0,59,0.00,,,0.00,Wunderground v.1.15,2013-05-09 21:15:00,
2013-05-09 17:20:00,83.0,68.2,30.06,SE,125,0.0,0.0,61,0.00,,,0.00,Wunderground v.1.15,2013-05-09 21:20:00,
2013-05-09 17:30:00,82.7,67.4,30.06,SE,125,0.0,0.0,60,0.00,,,0.00,Wunderground v.1.15,2013-05-09 21:30:00,
2013-05-09 17:35:00,82.3,67.5,30.07,SE,125,0.0,0.0,61,0.00,,,0.00,Wunderground v.1.15,2013-05-09 21:35:00,
2013-05-09 17:45:00,81.3,67.5,30.07,SE,125,0.0,0.0,63,0.00,,,0.00,Wunderground v.1.15,2013-05-09 21:45:00,
2013-05-09 17:50:00,81.0,66.8,30.07,SE,143,0.0,0.0,62,0.00,,,0.00,Wunderground v.1.15,2013-05-09 21:50:00,
2013-05-09 18:00:00,80.6,67.7,30.07,SE,143,0.0,0.0,65,0.00,,,0.00,Wunderground v.1.15,2013-05-09 22:00:00,
2013-05-09 18:05:00,80.3,67.0,30.07,SE,143,0.0,0.0,64,0.00,,,0.00,Wunderground v.1.15,2013-05-09 22:05:00,
2013-05-09 18:15:00,80.0,67.2,30.06,SE,143,0.0,0.0,65,0.00,,,0.00,Wunderground v.1.15,2013-05-09 22:15:00,
2013-05-09 18:20:00,79.9,67.5,30.06,SE,143,0.0,0.0,66,0.00,,,0.00,Wunderground v.1.15,2013-05-09 22:20:00,
2013-05-09 18:30:00,79.5,67.6,30.06,SE,143,0.0,0.0,67,0.00,,,0.00,Wunderground v.1.15,2013-05-09 22:30:00,
2013-05-09 18:35:00,79.1,67.6,30.06,SE,143,0.0,0.0,68,0.00,,,0.00,Wunderground v.1.15,2013-05-09 22:35:00,
2013-05-09 18:45:00,78.6,67.6,30.06,SE,143,0.0,0.0,69,0.00,,,0.00,Wunderground v.1.15,2013-05-09 22:45:00,
2013-05-09 18:50:00,78.4,67.0,30.06,SE,143,0.0,0.0,68,0.00,,,0.00,Wunderground v.1.15,2013-05-09 22:50:00,
2013-05-09 19:00:00,78.2,66.8,30.06,SE,143,0.0,0.0,68,0.00,,,0.00,Wunderground v.1.15,2013-05-09 23:00:00,
2013-05-09 19:05:00,78.3,67.3,30.06,SE,143,0.0,0.0,69,0.00,,,0.00,Wunderground v.1.15,2013-05-09 23:05:00,
2013-05-09 19:15:00,77.9,66.9,30.06,SE,143,0.0,0.0,69,0.00,,,0.00,Wunderground v.1.15,2013-05-09 23:15:00,
2013-05-09 19:25:00,77.4,66.4,30.06,SE,143,0.0,0.0,69,0.00,,,0.00,Wunderground v.1.15,2013-05-09 23:25:00,
2013-05-09 19:35:00,77.0,66.9,30.06,SE,143,0.0,0.0,71,0.00,,,0.00,Wunderground v.1.15,2013-05-09 23:35:00,
2013-05-09 19:45:00,76.6,66.5,30.07,SE,143,0.0,0.0,71,0.00,,,0.00,Wunderground v.1.15,2013-05-09 23:45:00,
2013-05-09 19:55:00,76.1,65.6,30.07,SE,143,0.0,0.0,70,0.00,,,0.00,Wunderground v.1.15,2013-05-09 23:55:00,
2013-05-09 20:05:00,75.9,66.2,30.08,SE,143,0.0,0.0,72,0.00,,,0.00,Wunderground v.1.15,2013-05-10 00:05:00,
2013-05-09 20:15:00,75.6,65.9,30.08,SE,142,0.0,0.0,72,0.00,,,0.00,Wunderground v.1.15,2013-05-10 00:15:00,
2013-05-09 20:25:00,75.1,64.2,30.08,SE,142,0.0,0.0,69,0.00,,,0.00,Wunderground v.1.15,2013-05-10 00:25:00,
2013-05-09 20:35:00,74.7,63.4,30.08,SE,142,0.0,0.0,68,0.00,,,0.00,Wunderground v.1.15,2013-05-10 00:35:00,
2013-05-09 20:45:00,74.5,63.2,30.08,SE,142,0.0,0.0,68,0.00,,,0.00,Wunderground v.1.15,2013-05-10 00:45:00,
2013-05-09 20:55:00,74.3,62.6,30.08,SE,142,0.0,0.0,67,0.00,,,0.00,Wunderground v.1.15,2013-05-10 00:55:00,
2013-05-09 21:05:00,74.0,61.5,30.08,SE,143,0.0,0.0,65,0.00,,,0.00,Wunderground v.1.15,2013-05-10 01:05:00,
2013-05-09 21:15:00,73.9,61.8,30.09,SE,144,0.0,0.0,66,0.00,,,0.00,Wunderground v.1.15,2013-05-10 01:15:00,
2013-05-09 21:25:00,73.8,61.3,30.09,SE,145,0.0,0.0,65,0.00,,,0.00,Wunderground v.1.15,2013-05-10 01:25:00,
2013-05-09 21:30:00,73.7,61.6,30.09,SE,145,0.0,0.0,66,0.00,,,0.00,Wunderground v.1.15,2013-05-10 01:30:00,
2013-05-09 21:40:00,73.5,61.4,30.10,SE,145,0.0,0.0,66,0.00,,,0.00,Wunderground v.1.15,2013-05-10 01:40:00,
2013-05-09 21:50:00,73.2,61.6,30.11,SE,145,0.0,0.0,67,0.00,,,0.00,Wunderground v.1.15,2013-05-10 01:50:00,
2013-05-09 22:00:00,72.8,61.2,30.11,SE,145,0.0,1.0,67,0.00,,,0.00,Wunderground v.1.15,2013-05-10 02:00:00,
2013-05-09 22:10:00,72.6,61.4,30.11,SE,143,0.0,0.0,68,0.00,,,0.00,Wunderground v.1.15,2013-05-10 02:10:00,
2013-05-09 22:20:00,72.3,61.1,30.11,SE,144,0.0,0.0,68,0.00,,,0.00,Wunderground v.1.15,2013-05-10 02:20:00,
2013-05-09 22:30:00,72.1,61.4,30.11,SE,144,0.0,0.0,69,0.00,,,0.00,Wunderground v.1.15,2013-05-10 02:30:00,
2013-05-09 22:40:00,71.7,61.0,30.11,SE,144,0.0,0.0,69,0.00,,,0.00,Wunderground v.1.15,2013-05-10 02:40:00,
2013-05-09 22:50:00,71.4,61.1,30.11,SE,144,0.0,0.0,70,0.00,,,0.00,Wunderground v.1.15,2013-05-10 02:50:00,
2013-05-09 23:00:00,71.0,60.7,30.11,SE,144,0.0,0.0,70,0.00,,,0.00,Wunderground v.1.15,2013-05-10 03:00:00,
2013-05-09 23:10:00,70.6,60.7,30.11,SE,144,0.0,0.0,71,0.00,,,0.00,Wunderground v.1.15,2013-05-10 03:10:00,
2013-05-09 23:15:00,70.4,60.5,30.11,SE,144,0.0,0.0,71,0.00,,,0.00,Wunderground v.1.15,2013-05-10 03:15:00,
2013-05-09 23:25:00,70.3,60.8,30.11,SE,144,0.0,0.0,72,0.00,,,0.00,Wunderground v.1.15,2013-05-10 03:25:00,
2013-05-09 23:35:00,70.1,60.7,30.11,SE,144,0.0,0.0,72,0.00,,,0.00,Wunderground v.1.15,2013-05-10 03:35:00,
2013-05-09 23:45:00,69.9,60.8,30.11,SE,144,0.0,0.0,73,0.00,,,0.00,Wunderground v.1.15,2013-05-10 03:45:00,
2013-05-09 23:55:00,69.6,60.9,30.12,SE,144,0.0,0.0,74,0.00,,,0.00,Wunderground v.1.15,2013-05-10 03:55:00,